This is the latest recevied weather packets stored in our database for station/object N0QWM. If no packets are shown the sender has not sent any weather packets the latest 10 day(s).
| Time | Temp. | Humidity | Pressure | Rain* | Wind** | Luminosity | Snow |
|---|---|---|---|---|---|---|---|
| 1788354406 | 25.56° C | 91% | 1024.7 hPa | 0 mm | - | 122 W/m² | - |
| 1788354101 | 25° C | 92% | 1024.8 hPa | 0 mm | - | 64 W/m² | - |
| 1788353797 | 25° C | 93% | 1024.7 hPa | 0 mm | - | 47 W/m² | - |
| 1788353492 | 24.44° C | 95% | 1024.7 hPa | 0 mm | - | 46 W/m² | - |
| 1788353189 | 24.44° C | 96% | 1024.7 hPa | 0 mm | - | 42 W/m² | - |
| 1788352888 | 23.89° C | 96% | 1024.8 hPa | 0 mm | - | 41 W/m² | - |
| 1788352585 | 23.89° C | 97% | 1024.7 hPa | 0 mm | - | 38 W/m² | - |
| 1788352279 | 23.89° C | 97% | 1024.6 hPa | 0 mm | - | 36 W/m² | - |
| 1788351978 | 23.33° C | 98% | 1024.5 hPa | 0 mm | - | 33 W/m² | - |
| 1788351674 | 23.33° C | 98% | 1024.7 hPa | 0 mm | - | 30 W/m² | - |
| 1788351369 | 23.33° C | 98% | 1024.6 hPa | 0 mm | - | 27 W/m² | - |
| 1788351064 | 23.33° C | 98% | 1024.7 hPa | 0 mm | - | 24 W/m² | - |
| 1788350760 | 23.33° C | 99% | 1024.6 hPa | 0 mm | - | 21 W/m² | - |
| 1788350475 | 22.78° C | 99% | 1024.6 hPa | 0 mm | - | 19 W/m² | - |
| 1788350151 | 22.78° C | 99% | 1024.2 hPa | 0 mm | - | 17 W/m² | - |
| 1788349847 | 22.78° C | 99% | 1024.3 hPa | 0 mm | - | 13 W/m² | - |
| 1788349543 | 22.78° C | 99% | 1024.2 hPa | 0 mm | - | 11 W/m² | - |
| 1788349242 | 22.78° C | 99% | 1024.3 hPa | 0 mm | - | 8 W/m² | - |
| 1788348938 | 22.78° C | 99% | 1024.2 hPa | 0 mm | - | 5 W/m² | - |
| 1788348633 | 22.78° C | 99% | 1024.2 hPa | 0 mm | - | 3 W/m² | - |
| 1788348328 | 22.78° C | 99% | 1024.1 hPa | 0 mm | - | 1 W/m² | - |
| 1788348025 | 22.78° C | 99% | 1023.9 hPa | 0 mm | - | 0 W/m² | - |
| 1788347721 | 22.78° C | 99% | 1024 hPa | 0 mm | - | 0 W/m² | - |
| 1788347416 | 22.78° C | 99% | 1024.1 hPa | 0 mm | - | 0 W/m² | - |
| 1788347112 | 22.78° C | 99% | 1024 hPa | 0 mm | - | 0 W/m² | - |
* Rain latest hour (hover to see other rain measurements)
** Current wind speed in m/s (hover to see current wind gust speed)